Home   Weather   Ljubljana   Past weeks

Flag for Slovenia Past Weather in Ljubljana, Slovenia — Yesterday and Last 2 Weeks

Now
38 °F

Fog.


Feels Like: 38 °F
Forecast: 17 / 40 °F
Wind: 2 mph from South

Location: Ljubljana / Bezigrad

Current Time: Dec 7, 2016 at 1:55:41 pm

Latest Report: Dec 7, 2016 at 12:00 pm


Visibility: 4 mi

Pressure: 30.69 "Hg

Humidity: 72%

Dew Point: 30 °F

Location of LjubljanaLocation

Past Weather in Ljubljana — Graph

°F

Ljubljana Temperature Yesterday

Maximum temperature yesterday: 43 °F (at 3:00 pm)
Minimum temperature yesterday: 24 °F (at 8:00 am)
Average temperature yesterday: 31 °F

High & Low Weather Summary for the Past Weeks

 TemperatureHumidityPressure
High62 °F (Nov 23, 2:00 pm)98% (Nov 23, 2:00 am)30.72 "Hg (Nov 23, 2:00 am)
Low23 °F (Nov 30, 7:00 am)27% (Nov 29, 3:00 pm)29.85 "Hg (Nov 27, 3:00 pm)
Average40 °F79%30.24 "Hg
* Reported Nov 22 12:00 pm — Dec 7 12:00 pm, Ljubljana, Weather by CustomWeather, © 2016

Note: Actual official high and low records may vary slightly from our data, if they occured in-between our weather recording intervals... More about our weather records

Advertising

Ljubljana Weather History for the Previous 24 Hours

Scroll right to see more
 ConditionsComfort  
Time TempWeatherWind HumidityBarometerVisibility
12:00 pm
Wed, Dec 7
38 °FFog.2 mph72%30.69 "Hg4 mi
10:00 am32 °FFog.1 mph88%30.72 "Hg1 mi
9:00 am29 °FFog.1 mph91%30.71 "Hg1 mi
8:00 am29 °FFog.No wind90%30.70 "Hg4 mi
7:00 am29 °FFog.1 mph89%30.68 "Hg4 mi
6:00 am31 °FFog.No wind88%30.66 "Hg4 mi
5:00 am30 °FChilly.1 mph88%30.66 "HgN/A
4:00 am31 °FChilly.2 mph88%30.65 "HgN/A
3:00 am29 °FChilly.1 mph91%30.64 "HgN/A
2:00 am28 °FChilly.No wind92%30.63 "HgN/A
1:00 am28 °FChilly.1 mph94%30.61 "HgN/A
10:00 pm
Tue, Dec 6
30 °FPassing clouds.1 mph91%30.55 "Hg9 mi
6:00 pm35 °FPassing clouds.No wind81%30.45 "Hg19 mi
5:00 pm38 °FPassing clouds.1 mph73%30.42 "Hg19 mi
4:00 pm40 °FPassing clouds.1 mph62%30.40 "Hg19 mi
3:00 pm43 °FPassing clouds.No wind57%30.38 "Hg9 mi
2:00 pm41 °FPassing clouds.1 mph59%30.39 "Hg7 mi
1:00 pm40 °FPassing clouds.1 mph60%30.40 "Hg2 mi
Weather by CustomWeather, © 2016

See weather overviewHow to use our weather pages